This demonstration page uses our WeatherBlox Daily Observations layout. Learn more.

Left ArrowRight Arrow

Hourly Observations for December 6, 2019

Temp ( °F °C ) Dew Point ( °F °C ) Humidity (%) Winds ( mph kmh ) Pressure ( in mb ) Visibility ( mi km ) Precip ( " mm )
12:53 am 00:53 Cloudy 52 11.1 49 9.4 89 89 Calm 30.03 1017 10 16 0.00 0.00
1:53 am 01:53 Cloudy 52 11.1 49 9.4 89 89 NNW 3 6 30.02 1017 10 16 0.00 0.00
2:53 am 02:53 Cloudy 52 11.1 49 9.4 89 89 NNE 5 7 30.02 1017 10 16 0.01 0.25
3:53 am 03:53 Cloudy 51 10.6 48 8.9 89 89 N 5 7 30.02 1017 10 16 0.00 0.00
4:53 am 04:53 Mostly Cloudy 50 10 48 8.9 93 93 NW 3 6 30.02 1017 10 16 0.00 0.00
5:53 am 05:53 Cloudy 51 10.6 49 9.4 92 92 Calm 30.02 1017 10 16 0.00 0.00
6:53 am 06:53 Cloudy 51 10.6 48 8.9 89 89 Calm 30.01 1016 10 16 0.00 0.00
7:53 am 07:53 Cloudy 51 10.6 48 8.9 89 89 NNE 5 7 30.03 1017 10 16 0.00 0.00
8:53 am 08:53 Cloudy 53 11.7 49 9.4 86 86 N 3 6 30.04 1017 10 16 0.00 0.00
9:53 am 09:53 Cloudy 54 12.2 50 10 87 87 Calm 30.04 1017 10 16 0.00 0.00
10:53 am 10:53 Cloudy 55 12.8 49 9.4 80 80 Calm 30.04 1017 10 16 0.00 0.00
11:48 am 11:48 Cloudy 55 13 50 10 82 82 Calm 30.02 1017 10 16 0.00 0.00
11:53 am 11:53 Cloudy 56 13.3 50 10 81 81 Calm 30.01 1016 10 16 0.00 0.00
12:53 pm 12:53 Cloudy 56 13.3 50 10 81 81 NW 3 6 29.98 1015 10 16 0.00 0.00
1:53 pm 13:53 Cloudy 56 13.3 50 10 81 81 NNE 6 9 29.92 1013 10 16 0.00 0.00
2:53 pm 14:53 Cloudy 56 13.3 49 9.4 77 77 N 7 11 29.93 1014 10 16 0.00 0.00
3:53 pm 15:53 Partly Cloudy 56 13.3 49 9.4 77 77 NE 7 11 29.90 1013 10 16 0.00 0.00
4:53 pm 16:53 Cloudy 55 12.8 49 9.4 80 80 NE 8 13 29.88 1012 10 16 0.00 0.00
5:53 pm 17:53 Cloudy with Light Rain 53 11.7 51 10.6 93 93 WNW 6 9 29.87 1012 8 13 0.00 0.00
6:16 pm 18:16 Cloudy with Rain 53 11.7 51 10.6 93 93 NW 6 9 29.87 1012 3 4 0.07 1.78
6:53 pm 18:53 Cloudy with Rain 53 11.7 51 10.6 93 93 ENE 5 7 29.87 1011 3 4 0.19 4.83
7:10 pm 19:10 Cloudy with Rain 53 11.7 52 11.1 96 96 ESE 6 9 29.88 1012 3 4 0.03 0.76
7:19 pm 19:19 Cloudy with Rain 53 11.7 52 11.1 96 96 ESE 6 9 29.88 1012 3 4 0.06 1.52
7:53 pm 19:53 Cloudy with Light Rain 54 12.2 52 11.1 93 93 SE 10 17 29.86 1011 3 4 0.11 2.79
8:00 pm 20:00 Cloudy with Light Rain 54 12.2 52 11.1 93 93 SE 12 19 29.86 1011 5 8 0.01 0.25
8:29 pm 20:29 Cloudy with Rain 55 12.8 52 11.1 90 90 SSE 20 31 29.87 1012 4 6 0.03 0.76
8:53 pm 20:53 Cloudy with Rain 55 12.8 53 11.7 93 93 S 17 28 29.87 1011 3 5 0.13 3.30
9:25 pm 21:25 Cloudy 56 13.3 52 11.1 87 87 S 24 39 29.87 1012 8 13 0.08 2.03
9:35 pm 21:35 Cloudy with Light Rain 55 12.8 53 11.7 93 93 S 20 31 29.88 1012 5 8 0.08 2.03
9:53 pm 21:53 Cloudy with Light Rain 55 12.8 53 11.7 93 93 S 20 31 29.88 1012 5 8 0.10 2.54
10:17 pm 22:17 Cloudy with Heavy Rain 55 12.8 53 11.7 93 93 S 17 28 29.88 1012 3 4 0.05 1.27
10:26 pm 22:26 Cloudy with Light Rain 55 12.8 53 11.7 93 93 S 16 26 29.88 1012 5 8 0.07 1.78
10:38 pm 22:38 Cloudy with Light Rain 55 12.8 53 11.7 93 93 S 16 26 29.88 1012 7 11 0.08 2.03
10:53 pm 22:53 Cloudy with Rain 55 12.8 52 11.1 90 90 S 20 31 29.87 1012 4 6 0.11 2.79
11:09 pm 23:09 Cloudy with Light Rain 55 12.8 52 11.1 90 90 S 20 31 29.88 1012 6 10 0.01 0.25
11:44 pm 23:44 Cloudy with Light Rain 55 12.8 52 11.1 90 90 S 22 35 29.86 1011 5 8 0.06 1.52
11:53 pm 23:53 Cloudy with Light Rain 55 12.8 52 11.1 90 90 S 22 35 29.85 1011 5 8 0.07 1.78

Powered by AerisWeather